This demonstration page uses our WeatherBlox Daily Observations layout. Learn more.

Left ArrowRight Arrow

39.51506, -84.39828

Hourly Observations for January 20, 2019

Temp ( °F °C ) Dew Point ( °F °C ) Humidity (%) Winds ( mph kmh ) Pressure ( in mb ) Visibility ( mi km ) Precip ( " mm )
12:15 am 00:15 Cloudy with Snow 20 -6.4 17 -8.1 88 88 N 18 30 29.80 1009 1 2 0.00 0.00
12:35 am 00:35 Cloudy with Snow 20 -6.7 17 -8.4 88 88 N 20 31 29.80 1009 1 2 0.00 0.00
12:55 am 00:55 Cloudy with Snow 20 -6.9 17 -8.6 88 88 N 16 26 29.80 1009 1 2 0.00 0.00
1:15 am 01:15 Cloudy with Light Snow 19 -7.1 16 -9.1 86 86 N 17 28 29.80 1009 2 3 0.00 0.00
1:35 am 01:35 Windy with Snow Likely 19 -7.4 15 -9.5 85 85 N 22 35 29.83 1010 2 3 0.00 0.00
1:55 am 01:55 Cloudy with Light Snow 18 -7.6 15 -9.6 86 86 N 17 28 29.85 1011 2 2 0.00 0.00
2:15 am 02:15 Cloudy with Light Snow 18 -7.6 14 -10.2 82 82 N 18 30 29.85 1011 4 6 0.00 0.00
2:35 am 02:35 Cloudy with Light Snow 18 -7.7 14 -10.2 82 82 N 17 28 29.88 1012 5 8 0.00 0.00
2:55 am 02:55 Cloudy with Light Snow 18 -7.9 13 -10.5 82 82 NNW 16 26 29.88 1012 7 11 0.00 0.00
3:15 am 03:15 Cloudy with Light Snow 18 -8 13 -10.7 81 81 N 15 24 29.88 1012 10 16 0.00 0.00
3:35 am 03:35 Cloudy with Light Snow 17 -8.2 13 -10.8 82 82 N 16 26 29.88 1012 7 11 0.00 0.00
3:55 am 03:55 Windy with Snow Likely 17 -8.3 12 -11.2 80 80 NNW 20 31 29.94 1014 10 16 0.00 0.00
4:15 am 04:15 Cloudy with Light Snow 17 -8.5 11 -11.5 79 79 NNW 13 20 29.97 1015 7 11 0.00 0.00
4:35 am 04:35 Cloudy with Light Snow 17 -8.6 11 -11.5 80 80 NNW 17 28 30.00 1016 7 11 0.00 0.00
4:55 am 04:55 Windy with Snow Likely 16 -9 10 -12 79 79 NNW 20 31 30.03 1017 7 11 0.00 0.00
5:15 am 05:15 Cloudy with Light Snow 15 -9.2 10 -12.1 80 80 NNW 15 24 30.03 1017 7 11 0.00 0.00
5:35 am 05:35 Cloudy with Light Snow 15 -9.4 10 -12.4 79 79 N 16 26 30.06 1018 5 8 0.00 0.00
5:55 am 05:55 Cloudy with Light Snow 15 -9.6 9 -12.7 78 78 NNW 17 28 30.06 1018 7 11 0.00 0.00
6:15 am 06:15 Cloudy with Light Snow 14 -10 8 -13.3 77 77 NNW 18 30 30.09 1019 7 11 0.00 0.00
6:35 am 06:35 Cloudy with Light Snow 13 -10.5 7 -13.8 77 77 NNW 13 20 30.09 1019 7 11 0.00 0.00
6:55 am 06:55 Cloudy 12 -11.1 6 -14.5 76 76 NNW 13 20 30.12 1020 10 16 0.00 0.00
7:15 am 07:15 Cloudy 11 -11.8 4 -15.4 75 75 NNW 13 20 30.15 1021 10 16 0.00 0.00
7:35 am 07:35 Clear 10 -12.3 4 -15.8 75 75 NNW 14 22 30.15 1021 10 16 0.00 0.00
7:55 am 07:55 Sunny 9 -12.9 2 -16.4 75 75 N 8 13 30.18 1022 10 16 0.00 0.00
8:15 am 08:15 Mostly Cloudy 9 -12.9 2 -16.4 75 75 N 9 15 30.18 1022 10 16 0.00 0.00
8:35 am 08:35 Cloudy 9 -12.7 3 -16.3 75 75 NNW 17 28 30.21 1023 10 16 0.00 0.00
8:55 am 08:55 Cloudy 9 -12.9 2 -16.6 74 74 N 14 22 30.21 1023 10 16 0.00 0.00
9:15 am 09:15 Sunny 9 -12.9 2 -16.7 73 73 NNW 10 17 30.24 1024 10 16 0.00 0.00
9:35 am 09:35 Sunny 9 -12.8 2 -16.8 72 72 NNW 12 19 30.24 1024 10 16 0.00 0.00
9:55 am 09:55 Sunny 9 -12.7 2 -16.7 72 72 NNW 15 24 30.24 1024 10 16 0.00 0.00
10:15 am 10:15 Sunny 10 -12.3 2 -16.6 71 71 NNW 13 20 30.24 1024 10 16 0.00 0.00
10:35 am 10:35 Sunny 10 -12.3 2 -16.6 71 71 NNW 16 26 30.27 1025 10 16 0.00 0.00
10:55 am 10:55 Sunny 10 -12.3 2 -16.7 70 70 NNW 13 20 30.27 1025 10 16 0.00 0.00
11:15 am 11:15 Sunny 10 -12.3 2 -16.5 71 71 NNW 13 20 30.27 1025 10 16 0.00 0.00
11:35 am 11:35 Sunny 10 -12 2 -16.6 69 69 NNW 12 19 30.27 1025 10 16 0.00 0.00
11:55 am 11:55 Sunny 11 -11.6 2 -16.4 68 68 NW 10 17 30.27 1025 10 16 0.00 0.00
12:15 pm 12:15 Partly Cloudy 12 -11.3 2 -16.4 66 66 N 14 22 30.27 1025 10 16 0.00 0.00
12:35 pm 12:35 Partly Cloudy 12 -11.3 2 -16.4 66 66 NNW 14 22 30.27 1025 10 16 0.00 0.00
12:55 pm 12:55 Sunny 11 -11.5 2 -16.7 66 66 NW 12 19 30.27 1025 10 16 0.00 0.00
1:15 pm 13:15 Sunny 12 -11 3 -16.3 65 65 NNW 8 13 30.27 1025 10 16 0.00 0.00
1:35 pm 13:35 Sunny 13 -10.6 2 -16.5 62 62 NNW 14 22 30.27 1025 10 16 0.00 0.00
1:55 pm 13:55 Sunny 13 -10.5 0 -17.7 56 56 N 15 24 30.27 1025 10 16 0.00 0.00
2:15 pm 14:15 Sunny 14 -10.2 0 -17.7 55 55 NW 12 19 30.27 1025 10 16 0.00 0.00
2:35 pm 14:35 Sunny 13 -10.4 -2 -19 50 50 N 15 24 30.27 1025 10 16 0.00 0.00
2:55 pm 14:55 Sunny 13 -10.4 -3 -19.2 49 49 NW 18 30 30.30 1026 10 16 0.00 0.00
3:15 pm 15:15 Sunny 14 -10 -4 -20 44 44 N 14 22 30.30 1026 10 16 0.00 0.00
3:35 pm 15:35 Sunny 13 -10.7 -4 -19.8 47 47 N 14 22 30.30 1026 10 16 0.00 0.00
3:55 pm 15:55 Sunny 12 -10.9 -3 -19.6 49 49 N 13 20 30.33 1027 10 16 0.00 0.00
4:15 pm 16:15 Sunny 13 -10.8 -3 -19.6 49 49 N 13 20 30.33 1027 10 16 0.00 0.00
4:35 pm 16:35 Sunny 13 -10.7 -2 -18.8 52 52 NNW 12 19 30.33 1027 10 16 0.00 0.00
4:55 pm 16:55 Sunny 12 -10.9 -2 -19.1 51 51 NW 8 13 30.33 1027 10 16 0.00 0.00
5:15 pm 17:15 Sunny 12 -11.2 -2 -19 53 53 NW 7 11 30.36 1028 10 16 0.00 0.00
5:35 pm 17:35 Sunny 11 -11.6 -1 -18.6 56 56 NW 5 7 30.36 1028 10 16 0.00 0.00
5:55 pm 17:55 Clear 10 -12.3 -1 -18.3 61 61 WNW 3 6 30.36 1028 10 16 0.00 0.00
6:15 pm 18:15 Clear 10 -12 0 -17.8 62 62 Calm 30.39 1029 10 16 0.00 0.00
6:35 pm 18:35 Clear 10 -12.4 1 -17.3 67 67 Calm 30.39 1029 10 16 0.00 0.00
6:55 pm 18:55 Clear 9 -12.9 3 -16.2 77 77 Calm 30.39 1029 10 16 0.00 0.00
7:15 pm 19:15 Clear 8 -13.6 3 -16.1 82 82 W 3 6 30.42 1030 10 16 0.00 0.00
7:35 pm 19:35 Clear 8 -13.6 3 -16.2 81 81 Calm 30.42 1030 10 16 0.00 0.00
7:55 pm 19:55 Clear 5 -15 1 -17.4 82 82 Calm 30.45 1031 10 16 0.00 0.00
8:15 pm 20:15 Partly Cloudy 5 -15 2 -16.9 86 86 Calm 30.45 1031 10 16 0.00 0.00
8:35 pm 20:35 Mostly Cloudy 6 -14.7 1 -17.2 81 81 Calm 30.45 1031 10 16 0.00 0.00
8:55 pm 20:55 Mostly Cloudy 7 -14.1 1 -17 79 79 Calm 30.45 1031 10 16 0.00 0.00
9:15 pm 21:15 Clear 6 -14.2 2 -16.6 82 82 Calm 30.45 1031 10 16 0.00 0.00
9:35 pm 21:35 Mostly Cloudy 6 -14.3 2 -16.5 84 84 Calm 30.48 1032 10 16 0.00 0.00
9:55 pm 21:55 Cloudy 5 -14.9 2 -16.4 88 88 W 5 7 30.48 1032 10 16 0.00 0.00
10:15 pm 22:15 Clear 5 -15.1 0 -18 79 79 Calm 30.48 1032 10 16 0.00 0.00
10:35 pm 22:35 Clear 7 -13.9 2 -16.9 78 78 Calm 30.48 1032 10 16 0.00 0.00
10:55 pm 22:55 Clear 4 -15.5 -1 -18.6 77 77 Calm 30.48 1032 10 16 0.00 0.00
11:15 pm 23:15 Clear 4 -15.3 2 -16.6 90 90 Calm 30.48 1032 10 16 0.00 0.00
11:35 pm 23:35 Clear 4 -15.6 1 -17.1 88 88 Calm 30.48 1032 10 16 0.00 0.00
11:55 pm 23:55 Clear 5 -14.9 2 -16.7 86 86 NE 6 9 30.50 1033 10 16 0.00 0.00

Powered by AerisWeather